Location: ?????
(54.9266°N, 38.5527°E)
Time: 13:35:15
(UTC+00:00)

Cosmos 1726 - Pass Details

Date: 14 April 2024
Orbit: 393 x 396 km, 82.5° (Epoch: 18 May)

Event Time Altitude Azimuth Distance (km) Brightness Sun altitude
Rises 00:41:06 0° 339° (NNW) 2,353 5.8 -13.8°
Reaches altitude 10° 00:43:19 10° 326° (NW) 1,492 4.6 -13.5°
Maximum altitude 00:46:03 25° 269° (W) 874 2.9 -13.2°
Enters shadow 00:46:39 24° 249° (WSW) 914 2.9 -13.2°
